Location: Newark
(43.0000°N, 1.6781°W)
Time: 06:39:42
(UTC+00:00)

XW-2C - Pass Details

Date: 02 December 2022
Orbit: 491 x 506 km, 97.5° (Epoch: 28 January)

Event Time Altitude Azimuth Distance (km) Brightness Sun altitude
Rises 17:23:15 0° 166° (SSE) 2,600 ? -9.1°
Reaches altitude 10° 17:25:20 10° 167° (SSE) 1,716 ? -9.5°
Maximum altitude 17:29:01 89° 248° (WSW) 510 ? -10.1°
Drops below altitude 10° 17:32:44 10° 348° (NNW) 1,717 ? -10.7°
Sets 17:34:49 0° 348° (NNW) 2,602 ? -11.1°
